Time,TemperatureF,DewpointF,PressureIn,WindDirection,WindDirectionDegrees,WindSpeedMPH,WindSpeedGustMPH,Humidity,HourlyPrecipIn,Conditions,Clouds,dailyrainin,SolarRadiationWatts/m^2,SoftwareType,DateUTC
2013-01-12 00:00:00,43.7,37.0,30.16,NNW,336,6.0,-999.0,77,0.00,,,0.00,0,WeatherHawk,2013-01-12 08:00:00,
2013-01-12 00:09:00,43.3,36.9,30.16,NNW,343,6.0,-999.0,78,0.00,,,0.00,0,WeatherHawk,2013-01-12 08:09:00,
2013-01-12 00:14:00,43.2,37.1,30.16,NNW,338,6.0,-999.0,79,0.00,,,0.00,2,WeatherHawk,2013-01-12 08:14:00,
2013-01-12 00:19:00,42.8,36.7,30.16,NNW,346,7.0,-999.0,79,0.00,,,0.00,1,WeatherHawk,2013-01-12 08:19:00,
2013-01-12 00:24:00,42.6,36.9,30.16,NNW,342,4.0,-999.0,80,0.00,,,0.00,0,WeatherHawk,2013-01-12 08:24:00,
2013-01-12 00:29:00,42.6,36.9,30.16,NNE,19,4.0,-999.0,80,0.00,,,0.00,0,WeatherHawk,2013-01-12 08:29:00,
2013-01-12 00:34:00,42.6,36.9,30.16,NNW,342,3.0,-999.0,80,0.00,,,0.00,0,WeatherHawk,2013-01-12 08:34:00,
2013-01-12 00:39:00,42.4,36.7,30.15,North,4,4.0,-999.0,80,0.00,,,0.00,1,WeatherHawk,2013-01-12 08:39:00,
2013-01-12 00:44:00,42.3,36.5,30.15,NNW,341,4.0,-999.0,80,0.00,,,0.00,1,WeatherHawk,2013-01-12 08:44:00,
2013-01-12 00:49:00,41.9,36.2,30.16,North,350,6.0,-999.0,80,0.00,,,0.00,0,WeatherHawk,2013-01-12 08:49:00,
2013-01-12 00:54:00,42.1,36.4,30.16,NNW,338,6.0,-999.0,80,0.00,,,0.00,0,WeatherHawk,2013-01-12 08:54:00,
2013-01-12 00:59:00,42.3,36.2,30.16,NNW,344,6.0,-999.0,79,0.00,,,0.00,0,WeatherHawk,2013-01-12 08:59:00,
2013-01-12 01:04:00,42.4,36.1,30.16,North,349,5.0,-999.0,78,0.00,,,0.00,0,WeatherHawk,2013-01-12 09:04:00,
2013-01-12 01:09:00,42.6,36.2,30.16,NNW,334,6.0,-999.0,78,0.00,,,0.00,1,WeatherHawk,2013-01-12 09:09:00,
2013-01-12 01:14:00,42.8,36.1,30.16,NW,321,8.0,-999.0,77,0.00,,,0.00,1,WeatherHawk,2013-01-12 09:14:00,
2013-01-12 01:19:00,43.0,36.3,30.16,NNW,336,8.0,-999.0,77,0.00,,,0.00,2,WeatherHawk,2013-01-12 09:19:00,
2013-01-12 01:24:00,43.2,36.1,30.16,NNW,343,6.0,-999.0,76,0.00,,,0.00,0,WeatherHawk,2013-01-12 09:24:00,
2013-01-12 01:29:00,43.2,36.1,30.16,NNW,338,7.0,-999.0,76,0.00,,,0.00,0,WeatherHawk,2013-01-12 09:29:00,
2013-01-12 01:34:00,43.2,36.1,30.16,NNW,337,6.0,-999.0,76,0.00,,,0.00,0,WeatherHawk,2013-01-12 09:34:00,
2013-01-12 01:39:00,43.2,36.1,30.16,NNW,327,7.0,-999.0,76,0.00,,,0.00,0,WeatherHawk,2013-01-12 09:39:00,
2013-01-12 01:44:00,43.2,36.1,30.16,NNW,327,6.0,-999.0,76,0.00,,,0.00,0,WeatherHawk,2013-01-12 09:44:00,
2013-01-12 01:49:00,43.2,36.1,30.17,NW,307,5.0,-999.0,76,0.00,,,0.00,0,WeatherHawk,2013-01-12 09:49:00,
2013-01-12 01:54:00,43.2,36.1,30.17,NNW,341,4.0,-999.0,76,0.00,,,0.00,0,WeatherHawk,2013-01-12 09:54:00,
2013-01-12 01:59:00,43.2,35.8,30.17,NE,51,1.0,-999.0,75,0.00,,,0.00,0,WeatherHawk,2013-01-12 09:59:00,
2013-01-12 02:04:00,43.3,36.0,30.17,North,356,2.0,-999.0,75,0.00,,,0.00,1,WeatherHawk,2013-01-12 10:04:00,
2013-01-12 02:09:00,43.2,35.8,30.17,NNW,344,2.0,-999.0,75,0.00,,,0.00,0,WeatherHawk,2013-01-12 10:09:00,
2013-01-12 02:14:00,43.2,36.1,30.17,ENE,58,3.0,-999.0,76,0.00,,,0.00,0,WeatherHawk,2013-01-12 10:14:00,
2013-01-12 02:19:00,43.2,35.8,30.17,East,91,3.0,-999.0,75,0.00,,,0.00,1,WeatherHawk,2013-01-12 10:19:00,
2013-01-12 02:24:00,43.3,35.6,30.17,North,8,1.0,-999.0,74,0.00,,,0.00,0,WeatherHawk,2013-01-12 10:24:00,
2013-01-12 02:29:00,43.5,35.8,30.17,NNW,346,3.0,-999.0,74,0.00,,,0.00,2,WeatherHawk,2013-01-12 10:29:00,
2013-01-12 02:34:00,43.7,35.6,30.17,NE,42,1.0,-999.0,73,0.00,,,0.00,0,WeatherHawk,2013-01-12 10:34:00,
2013-01-12 02:39:00,43.7,35.3,30.17,NW,326,2.0,-999.0,72,0.00,,,0.00,1,WeatherHawk,2013-01-12 10:39:00,
2013-01-12 02:44:00,43.7,35.6,30.17,ESE,115,2.0,-999.0,73,0.00,,,0.00,0,WeatherHawk,2013-01-12 10:44:00,
2013-01-12 02:49:00,43.9,35.4,30.18,ENE,74,2.0,-999.0,72,0.00,,,0.00,0,WeatherHawk,2013-01-12 10:49:00,
2013-01-12 02:54:00,43.7,35.3,30.18,SW,232,3.0,-999.0,72,0.00,,,0.00,0,WeatherHawk,2013-01-12 10:54:00,
2013-01-12 02:59:00,43.5,35.1,30.18,NW,320,4.0,-999.0,72,0.00,,,0.00,0,WeatherHawk,2013-01-12 10:59:00,
2013-01-12 03:04:00,43.2,35.1,30.18,NW,326,5.0,-999.0,73,0.00,,,0.00,0,WeatherHawk,2013-01-12 11:04:00,
2013-01-12 03:09:00,43.2,35.1,30.18,WNW,284,2.0,-999.0,73,0.00,,,0.00,0,WeatherHawk,2013-01-12 11:09:00,
2013-01-12 03:14:00,43.0,34.9,30.18,West,267,1.0,-999.0,73,0.00,,,0.00,0,WeatherHawk,2013-01-12 11:14:00,
2013-01-12 03:19:00,43.0,34.9,30.18,SW,222,2.0,-999.0,73,0.00,,,0.00,2,WeatherHawk,2013-01-12 11:19:00,
2013-01-12 03:24:00,43.0,34.9,30.18,WNW,302,3.0,-999.0,73,0.00,,,0.00,0,WeatherHawk,2013-01-12 11:24:00,
2013-01-12 03:29:00,42.8,34.8,30.18,WNW,301,4.0,-999.0,73,0.00,,,0.00,1,WeatherHawk,2013-01-12 11:29:00,
2013-01-12 03:34:00,43.2,34.8,30.18,WNW,292,2.0,-999.0,72,0.00,,,0.00,1,WeatherHawk,2013-01-12 11:34:00,
2013-01-12 03:39:00,43.2,34.4,30.18,WNW,292,2.0,-999.0,71,0.00,,,0.00,0,WeatherHawk,2013-01-12 11:39:00,
2013-01-12 03:44:00,43.2,34.4,30.18,North,349,2.0,-999.0,71,0.00,,,0.00,0,WeatherHawk,2013-01-12 11:44:00,
2013-01-12 03:49:00,43.3,34.9,30.18,NNE,18,2.0,-999.0,72,0.00,,,0.00,0,WeatherHawk,2013-01-12 11:49:00,
2013-01-12 03:54:00,43.0,34.9,30.18,NNW,345,2.0,-999.0,73,0.00,,,0.00,0,WeatherHawk,2013-01-12 11:54:00,
2013-01-12 03:59:00,42.8,34.8,30.18,North,359,2.0,-999.0,73,0.00,,,0.00,0,WeatherHawk,2013-01-12 11:59:00,
2013-01-12 04:04:00,42.8,34.8,30.19,North,357,2.0,-999.0,73,0.00,,,0.00,0,WeatherHawk,2013-01-12 12:04:00,
2013-01-12 04:09:00,42.6,34.2,30.19,NNE,32,4.0,-999.0,72,0.00,,,0.00,0,WeatherHawk,2013-01-12 12:09:00,
2013-01-12 04:14:00,42.8,34.4,30.19,NNW,346,2.0,-999.0,72,0.00,,,0.00,0,WeatherHawk,2013-01-12 12:14:00,
2013-01-12 04:19:00,42.8,33.7,30.19,NW,325,3.0,-999.0,70,0.00,,,0.00,1,WeatherHawk,2013-01-12 12:19:00,
2013-01-12 04:24:00,42.4,33.4,30.19,WNW,284,3.0,-999.0,70,0.00,,,0.00,0,WeatherHawk,2013-01-12 12:24:00,
2013-01-12 04:29:00,42.3,33.2,30.18,NW,313,3.0,-999.0,70,0.00,,,0.00,1,WeatherHawk,2013-01-12 12:29:00,
2013-01-12 04:34:00,42.3,33.2,30.18,NW,315,2.0,-999.0,70,0.00,,,0.00,0,WeatherHawk,2013-01-12 12:34:00,
2013-01-12 04:39:00,42.1,33.0,30.18,NW,305,2.0,-999.0,70,0.00,,,0.00,0,WeatherHawk,2013-01-12 12:39:00,
2013-01-12 04:44:00,41.9,32.5,30.18,NNW,341,1.0,-999.0,69,0.00,,,0.00,1,WeatherHawk,2013-01-12 12:44:00,
2013-01-12 04:49:00,41.7,32.7,30.18,NNE,13,3.0,-999.0,70,0.00,,,0.00,0,WeatherHawk,2013-01-12 12:49:00,
2013-01-12 04:54:00,41.7,32.7,30.18,North,3,3.0,-999.0,70,0.00,,,0.00,0,WeatherHawk,2013-01-12 12:54:00,
2013-01-12 04:59:00,41.5,32.5,30.19,North,359,2.0,-999.0,70,0.00,,,0.00,0,WeatherHawk,2013-01-12 12:59:00,
2013-01-12 05:04:00,41.5,32.5,30.19,NE,43,3.0,-999.0,70,0.00,,,0.00,0,WeatherHawk,2013-01-12 13:04:00,
2013-01-12 05:09:00,41.5,32.1,30.19,WSW,242,1.0,-999.0,69,0.00,,,0.00,0,WeatherHawk,2013-01-12 13:09:00,
2013-01-12 05:14:00,41.4,32.0,30.19,West,270,2.0,-999.0,69,0.00,,,0.00,0,WeatherHawk,2013-01-12 13:14:00,
2013-01-12 05:19:00,41.4,32.0,30.19,WSW,242,1.0,-999.0,69,0.00,,,0.00,0,WeatherHawk,2013-01-12 13:19:00,
2013-01-12 05:24:00,41.7,32.3,30.19,ENE,59,5.0,-999.0,69,0.00,,,0.00,0,WeatherHawk,2013-01-12 13:24:00,
2013-01-12 05:29:00,42.3,31.7,30.19,NNW,329,3.0,-999.0,66,0.00,,,0.00,1,WeatherHawk,2013-01-12 13:29:00,
2013-01-12 05:34:00,42.1,31.9,30.19,NW,318,2.0,-999.0,67,0.00,,,0.00,0,WeatherHawk,2013-01-12 13:34:00,
2013-01-12 05:39:00,42.1,31.2,30.19,NNE,17,6.0,-999.0,65,0.00,,,0.00,0,WeatherHawk,2013-01-12 13:39:00,
2013-01-12 05:44:00,42.4,31.5,30.19,NW,325,4.0,-999.0,65,0.00,,,0.00,0,WeatherHawk,2013-01-12 13:44:00,
2013-01-12 05:49:00,41.9,31.4,30.20,NW,312,6.0,-999.0,66,0.00,,,0.00,0,WeatherHawk,2013-01-12 13:49:00,
2013-01-12 05:54:00,41.2,31.8,30.20,NW,305,5.0,-999.0,69,0.00,,,0.00,0,WeatherHawk,2013-01-12 13:54:00,
2013-01-12 05:59:00,40.6,32.0,30.20,NW,313,8.0,-999.0,71,0.00,,,0.00,2,WeatherHawk,2013-01-12 13:59:00,
2013-01-12 06:04:00,40.6,32.0,30.21,NW,318,7.0,-999.0,71,0.00,,,0.00,0,WeatherHawk,2013-01-12 14:04:00,
2013-01-12 06:09:00,41.0,32.0,30.21,NNW,346,5.0,-999.0,70,0.00,,,0.00,2,WeatherHawk,2013-01-12 14:09:00,
2013-01-12 06:14:00,41.0,32.0,30.21,NNW,334,6.0,-999.0,70,0.00,,,0.00,1,WeatherHawk,2013-01-12 14:14:00,
2013-01-12 06:19:00,41.2,32.5,30.21,North,350,5.0,-999.0,71,0.00,,,0.00,0,WeatherHawk,2013-01-12 14:19:00,
2013-01-12 06:24:00,40.8,32.5,30.22,North,6,6.0,-999.0,72,0.00,,,0.00,0,WeatherHawk,2013-01-12 14:24:00,
2013-01-12 06:29:00,40.6,32.3,30.22,NNW,340,8.0,-999.0,72,0.00,,,0.00,0,WeatherHawk,2013-01-12 14:29:00,
2013-01-12 06:34:00,40.6,32.0,30.22,North,354,6.0,-999.0,71,0.00,,,0.00,0,WeatherHawk,2013-01-12 14:34:00,
2013-01-12 06:39:00,40.6,32.3,30.22,North,353,8.0,-999.0,72,0.00,,,0.00,1,WeatherHawk,2013-01-12 14:39:00,
2013-01-12 06:44:00,40.3,32.3,30.22,North,355,6.0,-999.0,73,0.00,,,0.00,0,WeatherHawk,2013-01-12 14:44:00,
2013-01-12 06:49:00,39.9,32.3,30.23,North,353,7.0,-999.0,74,0.00,,,0.00,3,WeatherHawk,2013-01-12 14:49:00,
2013-01-12 06:54:00,39.7,32.1,30.23,NNW,345,7.0,-999.0,74,0.00,,,0.00,0,WeatherHawk,2013-01-12 14:54:00,
2013-01-12 06:59:00,39.6,32.3,30.23,NNW,347,8.0,-999.0,75,0.00,,,0.00,2,WeatherHawk,2013-01-12 14:59:00,
2013-01-12 07:04:00,39.4,32.1,30.23,North,352,7.0,-999.0,75,0.00,,,0.00,1,WeatherHawk,2013-01-12 15:04:00,
2013-01-12 07:09:00,39.4,32.5,30.24,NNW,345,6.0,-999.0,76,0.00,,,0.00,1,WeatherHawk,2013-01-12 15:09:00,
2013-01-12 07:14:00,39.6,32.3,30.24,North,352,6.0,-999.0,75,0.00,,,0.00,1,WeatherHawk,2013-01-12 15:14:00,
2013-01-12 07:19:00,39.6,32.3,30.24,NNW,346,6.0,-999.0,75,0.00,,,0.00,3,WeatherHawk,2013-01-12 15:19:00,
2013-01-12 07:24:00,39.2,32.0,30.24,NNW,347,5.0,-999.0,75,0.00,,,0.00,5,WeatherHawk,2013-01-12 15:24:00,
2013-01-12 07:29:00,38.8,31.9,30.24,NNW,347,8.0,-999.0,76,0.00,,,0.00,15,WeatherHawk,2013-01-12 15:29:00,
2013-01-12 07:39:00,38.8,31.9,30.24,North,357,6.0,-999.0,76,0.00,,,0.00,22,WeatherHawk,2013-01-12 15:39:00,
2013-01-12 07:44:00,38.7,32.1,30.24,North,4,9.0,-999.0,77,0.00,,,0.00,43,WeatherHawk,2013-01-12 15:44:00,
2013-01-12 07:49:00,38.7,32.1,30.24,North,0,8.0,-999.0,77,0.00,,,0.00,59,WeatherHawk,2013-01-12 15:49:00,
2013-01-12 07:54:00,38.7,31.8,30.24,North,0,9.0,-999.0,76,0.00,,,0.00,61,WeatherHawk,2013-01-12 15:54:00,
2013-01-12 07:59:00,39.0,32.1,30.24,North,355,7.0,-999.0,76,0.00,,,0.00,49,WeatherHawk,2013-01-12 15:59:00,
2013-01-12 08:04:00,39.4,31.8,30.25,North,352,9.0,-999.0,74,0.00,,,0.00,87,WeatherHawk,2013-01-12 16:04:00,
2013-01-12 08:09:00,39.7,31.8,30.25,North,351,7.0,-999.0,73,0.00,,,0.00,100,WeatherHawk,2013-01-12 16:09:00,
2013-01-12 08:14:00,39.7,31.8,30.25,North,352,9.0,-999.0,73,0.00,,,0.00,110,WeatherHawk,2013-01-12 16:14:00,
2013-01-12 08:19:00,39.9,32.0,30.25,North,353,9.0,-999.0,73,0.00,,,0.00,122,WeatherHawk,2013-01-12 16:19:00,
2013-01-12 08:24:00,40.1,31.8,30.25,NNW,348,8.0,-999.0,72,0.00,,,0.00,133,WeatherHawk,2013-01-12 16:24:00,
2013-01-12 08:29:00,40.3,32.3,30.25,NNW,339,6.0,-999.0,73,0.00,,,0.00,150,WeatherHawk,2013-01-12 16:29:00,
2013-01-12 08:34:00,40.5,32.5,30.25,North,354,6.0,-999.0,73,0.00,,,0.00,161,WeatherHawk,2013-01-12 16:34:00,
2013-01-12 08:39:00,40.5,32.2,30.26,North,357,7.0,-999.0,72,0.00,,,0.00,173,WeatherHawk,2013-01-12 16:39:00,
2013-01-12 08:44:00,40.6,32.0,30.26,North,353,7.0,-999.0,71,0.00,,,0.00,188,WeatherHawk,2013-01-12 16:44:00,
2013-01-12 08:49:00,41.0,32.0,30.26,NNW,344,6.0,-999.0,70,0.00,,,0.00,199,WeatherHawk,2013-01-12 16:49:00,
2013-01-12 08:54:00,41.4,32.0,30.26,NNW,345,6.0,-999.0,69,0.00,,,0.00,212,WeatherHawk,2013-01-12 16:54:00,
2013-01-12 08:59:00,41.5,32.1,30.26,NNW,336,4.0,-999.0,69,0.00,,,0.00,227,WeatherHawk,2013-01-12 16:59:00,
2013-01-12 09:04:00,41.9,32.1,30.26,NW,320,5.0,-999.0,68,0.00,,,0.00,240,WeatherHawk,2013-01-12 17:04:00,
2013-01-12 09:09:00,42.4,32.6,30.26,NNW,331,5.0,-999.0,68,0.00,,,0.00,252,WeatherHawk,2013-01-12 17:09:00,
2013-01-12 09:14:00,42.6,32.1,30.26,NNW,347,4.0,-999.0,66,0.00,,,0.00,264,WeatherHawk,2013-01-12 17:14:00,
2013-01-12 09:19:00,43.2,32.6,30.26,NE,50,1.0,-999.0,66,0.00,,,0.00,274,WeatherHawk,2013-01-12 17:19:00,
2013-01-12 09:24:00,43.5,32.5,30.26,NNE,30,3.0,-999.0,65,0.00,,,0.00,284,WeatherHawk,2013-01-12 17:24:00,
2013-01-12 09:29:00,43.7,32.3,30.26,North,11,2.0,-999.0,64,0.00,,,0.00,302,WeatherHawk,2013-01-12 17:29:00,
2013-01-12 09:34:00,44.2,32.5,30.26,NNE,20,2.0,-999.0,63,0.00,,,0.00,309,WeatherHawk,2013-01-12 17:34:00,
2013-01-12 09:39:00,44.4,32.2,30.25,NNE,33,2.0,-999.0,62,0.00,,,0.00,322,WeatherHawk,2013-01-12 17:39:00,
2013-01-12 09:44:00,45.1,32.1,30.26,NE,55,2.0,-999.0,60,0.00,,,0.00,335,WeatherHawk,2013-01-12 17:44:00,
2013-01-12 09:49:00,46.8,34.4,30.26,ESE,121,0.0,-999.0,62,0.00,,,0.00,349,WeatherHawk,2013-01-12 17:49:00,
2013-01-12 09:54:00,48.9,34.4,30.26,North,359,0.0,-999.0,57,0.00,,,0.00,356,WeatherHawk,2013-01-12 17:54:00,
2013-01-12 09:59:00,49.1,32.7,30.26,NW,319,2.0,-999.0,53,0.00,,,0.00,363,WeatherHawk,2013-01-12 17:59:00,
2013-01-12 10:04:00,48.4,31.6,30.25,East,81,1.0,-999.0,52,0.00,,,0.00,376,WeatherHawk,2013-01-12 18:04:00,
2013-01-12 10:09:00,49.8,32.9,30.25,ESE,113,2.0,-999.0,52,0.00,,,0.00,385,WeatherHawk,2013-01-12 18:09:00,
2013-01-12 10:14:00,49.3,32.4,30.25,SSE,155,3.0,-999.0,52,0.00,,,0.00,399,WeatherHawk,2013-01-12 18:14:00,
2013-01-12 10:19:00,48.2,34.6,30.25,SE,128,5.0,-999.0,59,0.00,,,0.00,403,WeatherHawk,2013-01-12 18:19:00,
2013-01-12 10:24:00,48.0,35.6,30.25,SE,141,6.0,-999.0,62,0.00,,,0.00,414,WeatherHawk,2013-01-12 18:24:00,
2013-01-12 10:29:00,48.0,36.0,30.25,ESE,115,6.0,-999.0,63,0.00,,,0.00,426,WeatherHawk,2013-01-12 18:29:00,
2013-01-12 10:34:00,47.1,35.6,30.25,SE,133,4.0,-999.0,64,0.00,,,0.00,431,WeatherHawk,2013-01-12 18:34:00,
2013-01-12 10:39:00,48.0,36.4,30.25,SE,128,4.0,-999.0,64,0.00,,,0.00,438,WeatherHawk,2013-01-12 18:39:00,
2013-01-12 10:44:00,47.8,35.5,30.24,ESE,121,3.0,-999.0,62,0.00,,,0.00,449,WeatherHawk,2013-01-12 18:44:00,
2013-01-12 10:49:00,48.4,36.0,30.24,SE,129,4.0,-999.0,62,0.00,,,0.00,455,WeatherHawk,2013-01-12 18:49:00,
2013-01-12 10:54:00,48.2,35.4,30.24,SSE,153,4.0,-999.0,61,0.00,,,0.00,458,WeatherHawk,2013-01-12 18:54:00,
2013-01-12 10:59:00,48.4,36.4,30.24,SE,144,4.0,-999.0,63,0.00,,,0.00,468,WeatherHawk,2013-01-12 18:59:00,
2013-01-12 11:04:00,48.2,35.0,30.24,SE,137,6.0,-999.0,60,0.00,,,0.00,469,WeatherHawk,2013-01-12 19:04:00,
2013-01-12 11:09:00,48.0,35.2,30.24,SSE,147,4.0,-999.0,61,0.00,,,0.00,480,WeatherHawk,2013-01-12 19:09:00,
2013-01-12 11:14:00,48.4,35.1,30.24,SE,143,6.0,-999.0,60,0.00,,,0.00,484,WeatherHawk,2013-01-12 19:14:00,
2013-01-12 11:19:00,48.7,34.6,30.24,SE,144,5.0,-999.0,58,0.00,,,0.00,484,WeatherHawk,2013-01-12 19:19:00,
2013-01-12 11:24:00,48.9,35.7,30.23,SSE,151,5.0,-999.0,60,0.00,,,0.00,490,WeatherHawk,2013-01-12 19:24:00,
2013-01-12 11:29:00,48.6,34.9,30.23,SE,140,6.0,-999.0,59,0.00,,,0.00,495,WeatherHawk,2013-01-12 19:29:00,
2013-01-12 11:34:00,48.4,35.1,30.22,SE,135,6.0,-999.0,60,0.00,,,0.00,501,WeatherHawk,2013-01-12 19:34:00,
2013-01-12 11:39:00,48.2,35.4,30.22,SE,142,6.0,-999.0,61,0.00,,,0.00,503,WeatherHawk,2013-01-12 19:39:00,
2013-01-12 11:44:00,48.2,34.1,30.22,SE,146,8.0,-999.0,58,0.00,,,0.00,505,WeatherHawk,2013-01-12 19:44:00,
2013-01-12 11:49:00,48.9,35.2,30.22,SSE,149,6.0,-999.0,59,0.00,,,0.00,514,WeatherHawk,2013-01-12 19:49:00,
2013-01-12 11:54:00,49.1,35.4,30.22,SSE,161,5.0,-999.0,59,0.00,,,0.00,510,WeatherHawk,2013-01-12 19:54:00,
2013-01-12 11:59:00,49.5,33.0,30.21,SE,142,4.0,-999.0,53,0.00,,,0.00,513,WeatherHawk,2013-01-12 19:59:00,
2013-01-12 12:04:00,49.6,34.1,30.21,South,171,4.0,-999.0,55,0.00,,,0.00,518,WeatherHawk,2013-01-12 20:04:00,
2013-01-12 12:09:00,49.3,34.3,30.21,South,172,7.0,-999.0,56,0.00,,,0.00,521,WeatherHawk,2013-01-12 20:09:00,
2013-01-12 12:14:00,49.3,32.4,30.20,SSE,149,4.0,-999.0,52,0.00,,,0.00,520,WeatherHawk,2013-01-12 20:14:00,
2013-01-12 12:19:00,49.8,32.9,30.20,SSE,158,6.0,-999.0,52,0.00,,,0.00,528,WeatherHawk,2013-01-12 20:19:00,
2013-01-12 12:24:00,49.8,31.4,30.20,SE,135,6.0,-999.0,49,0.00,,,0.00,518,WeatherHawk,2013-01-12 20:24:00,
2013-01-12 12:29:00,50.2,32.3,30.20,South,185,4.0,-999.0,50,0.00,,,0.00,520,WeatherHawk,2013-01-12 20:29:00,
2013-01-12 12:34:00,49.5,33.5,30.19,South,179,4.0,-999.0,54,0.00,,,0.00,518,WeatherHawk,2013-01-12 20:34:00,
2013-01-12 12:39:00,49.6,30.8,30.19,SSE,158,6.0,-999.0,48,0.00,,,0.00,512,WeatherHawk,2013-01-12 20:39:00,
2013-01-12 12:44:00,50.0,31.6,30.19,South,178,8.0,-999.0,49,0.00,,,0.00,515,WeatherHawk,2013-01-12 20:44:00,
2013-01-12 12:49:00,49.6,32.3,30.19,South,173,5.0,-999.0,51,0.00,,,0.00,514,WeatherHawk,2013-01-12 20:49:00,
2013-01-12 12:54:00,49.8,32.9,30.19,SSE,155,5.0,-999.0,52,0.00,,,0.00,506,WeatherHawk,2013-01-12 20:54:00,
2013-01-12 12:59:00,50.2,31.3,30.19,SSE,165,3.0,-999.0,48,0.00,,,0.00,505,WeatherHawk,2013-01-12 20:59:00,
2013-01-12 13:04:00,50.2,30.7,30.18,South,172,7.0,-999.0,47,0.00,,,0.00,504,WeatherHawk,2013-01-12 21:04:00,
2013-01-12 13:09:00,50.2,32.8,30.18,South,183,4.0,-999.0,51,0.00,,,0.00,500,WeatherHawk,2013-01-12 21:09:00,
2013-01-12 13:14:00,50.4,31.9,30.18,South,176,6.0,-999.0,49,0.00,,,0.00,497,WeatherHawk,2013-01-12 21:14:00,
2013-01-12 13:19:00,50.5,33.1,30.18,SE,142,2.0,-999.0,51,0.00,,,0.00,494,WeatherHawk,2013-01-12 21:19:00,
2013-01-12 13:24:00,50.4,31.4,30.18,South,179,4.0,-999.0,48,0.00,,,0.00,484,WeatherHawk,2013-01-12 21:24:00,
2013-01-12 13:29:00,50.4,32.4,30.18,SSE,158,2.0,-999.0,50,0.00,,,0.00,480,WeatherHawk,2013-01-12 21:29:00,
2013-01-12 13:34:00,50.4,31.4,30.17,SSE,163,7.0,-999.0,48,0.00,,,0.00,472,WeatherHawk,2013-01-12 21:34:00,
2013-01-12 13:39:00,50.7,32.3,30.18,SSW,210,3.0,-999.0,49,0.00,,,0.00,469,WeatherHawk,2013-01-12 21:39:00,
2013-01-12 13:44:00,50.7,31.8,30.18,South,177,4.0,-999.0,48,0.00,,,0.00,458,WeatherHawk,2013-01-12 21:44:00,
2013-01-12 13:49:00,50.5,31.6,30.18,SW,233,2.0,-999.0,48,0.00,,,0.00,453,WeatherHawk,2013-01-12 21:49:00,
2013-01-12 13:54:00,50.5,31.6,30.17,SSW,211,5.0,-999.0,48,0.00,,,0.00,446,WeatherHawk,2013-01-12 21:54:00,
2013-01-12 13:59:00,50.5,32.1,30.17,SSW,204,5.0,-999.0,49,0.00,,,0.00,434,WeatherHawk,2013-01-12 21:59:00,
2013-01-12 14:04:00,50.2,31.3,30.17,WSW,257,3.0,-999.0,48,0.00,,,0.00,429,WeatherHawk,2013-01-12 22:04:00,
2013-01-12 14:09:00,49.8,31.4,30.17,SW,220,8.0,-999.0,49,0.00,,,0.00,425,WeatherHawk,2013-01-12 22:09:00,
2013-01-12 14:14:00,49.6,31.8,30.17,SW,232,7.0,-999.0,50,0.00,,,0.00,413,WeatherHawk,2013-01-12 22:14:00,
2013-01-12 14:19:00,49.5,32.6,30.17,SW,228,6.0,-999.0,52,0.00,,,0.00,406,WeatherHawk,2013-01-12 22:19:00,
2013-01-12 14:24:00,49.5,32.6,30.17,SW,226,5.0,-999.0,52,0.00,,,0.00,398,WeatherHawk,2013-01-12 22:24:00,
2013-01-12 14:29:00,49.6,33.2,30.17,SW,230,4.0,-999.0,53,0.00,,,0.00,386,WeatherHawk,2013-01-12 22:29:00,
2013-01-12 14:34:00,49.3,32.9,30.17,SW,229,5.0,-999.0,53,0.00,,,0.00,376,WeatherHawk,2013-01-12 22:34:00,
2013-01-12 14:39:00,49.3,33.8,30.17,SW,227,8.0,-999.0,55,0.00,,,0.00,370,WeatherHawk,2013-01-12 22:39:00,
2013-01-12 14:44:00,49.6,33.2,30.17,SW,221,5.0,-999.0,53,0.00,,,0.00,357,WeatherHawk,2013-01-12 22:44:00,
2013-01-12 14:49:00,50.0,34.5,30.16,WSW,242,5.0,-999.0,55,0.00,,,0.00,347,WeatherHawk,2013-01-12 22:49:00,
2013-01-12 14:54:00,49.8,33.8,30.16,SW,232,5.0,-999.0,54,0.00,,,0.00,334,WeatherHawk,2013-01-12 22:54:00,
2013-01-12 14:59:00,49.5,33.5,30.16,WSW,239,7.0,-999.0,54,0.00,,,0.00,326,WeatherHawk,2013-01-12 22:59:00,
2013-01-12 15:04:00,49.6,34.1,30.16,WSW,252,5.0,-999.0,55,0.00,,,0.00,311,WeatherHawk,2013-01-12 23:04:00,
2013-01-12 15:09:00,49.6,34.1,30.16,SW,233,6.0,-999.0,55,0.00,,,0.00,297,WeatherHawk,2013-01-12 23:09:00,
2013-01-12 15:14:00,49.8,33.4,30.16,SW,227,6.0,-999.0,53,0.00,,,0.00,288,WeatherHawk,2013-01-12 23:14:00,
2013-01-12 15:19:00,49.8,33.4,30.16,WSW,248,5.0,-999.0,53,0.00,,,0.00,274,WeatherHawk,2013-01-12 23:19:00,
2013-01-12 15:24:00,49.5,33.5,30.16,WSW,237,6.0,-999.0,54,0.00,,,0.00,264,WeatherHawk,2013-01-12 23:24:00,
2013-01-12 15:29:00,49.6,33.2,30.16,WSW,248,4.0,-999.0,53,0.00,,,0.00,255,WeatherHawk,2013-01-12 23:29:00,
2013-01-12 15:34:00,49.6,33.2,30.16,WSW,247,5.0,-999.0,53,0.00,,,0.00,237,WeatherHawk,2013-01-12 23:34:00,
2013-01-12 15:39:00,50.0,33.1,30.16,WSW,243,6.0,-999.0,52,0.00,,,0.00,225,WeatherHawk,2013-01-12 23:39:00,
2013-01-12 15:44:00,50.0,32.6,30.15,WSW,254,5.0,-999.0,51,0.00,,,0.00,206,WeatherHawk,2013-01-12 23:44:00,
2013-01-12 15:49:00,49.8,31.9,30.15,West,260,6.0,-999.0,50,0.00,,,0.00,201,WeatherHawk,2013-01-12 23:49:00,
2013-01-12 15:54:00,50.0,32.1,30.15,WSW,251,3.0,-999.0,50,0.00,,,0.00,183,WeatherHawk,2013-01-12 23:54:00,
2013-01-12 16:00:00,49.8,32.4,30.15,WSW,244,5.0,-999.0,51,0.00,,,0.00,172,WeatherHawk,2013-01-13 00:00:00,
2013-01-12 16:05:00,50.0,32.1,30.15,West,272,5.0,-999.0,50,0.00,,,0.00,161,WeatherHawk,2013-01-13 00:05:00,
2013-01-12 16:10:00,49.8,31.9,30.15,West,266,7.0,-999.0,50,0.00,,,0.00,151,WeatherHawk,2013-01-13 00:10:00,
2013-01-12 16:15:00,49.5,31.6,30.15,WSW,257,6.0,-999.0,50,0.00,,,0.00,134,WeatherHawk,2013-01-13 00:15:00,
2013-01-12 16:20:00,49.6,32.3,30.15,West,260,6.0,-999.0,51,0.00,,,0.00,123,WeatherHawk,2013-01-13 00:20:00,
2013-01-12 16:25:00,49.5,32.1,30.15,WSW,247,4.0,-999.0,51,0.00,,,0.00,109,WeatherHawk,2013-01-13 00:25:00,
2013-01-12 16:34:00,49.3,32.9,30.15,WSW,253,6.0,-999.0,53,0.00,,,0.00,78,WeatherHawk,2013-01-13 00:34:00,
2013-01-12 16:39:00,49.3,32.4,30.15,WNW,287,4.0,-999.0,52,0.00,,,0.00,71,WeatherHawk,2013-01-13 00:39:00,
2013-01-12 16:44:00,49.3,32.9,30.15,WSW,248,4.0,-999.0,53,0.00,,,0.00,58,WeatherHawk,2013-01-13 00:44:00,
2013-01-12 16:49:00,49.1,32.7,30.15,West,278,4.0,-999.0,53,0.00,,,0.00,49,WeatherHawk,2013-01-13 00:49:00,
2013-01-12 16:55:00,48.9,32.5,30.15,WSW,237,4.0,-999.0,53,0.00,,,0.00,36,WeatherHawk,2013-01-13 00:55:00,
2013-01-12 17:00:00,48.6,32.7,30.15,West,267,4.0,-999.0,54,0.00,,,0.00,26,WeatherHawk,2013-01-13 01:00:00,
2013-01-12 17:05:00,48.4,33.0,30.15,West,274,7.0,-999.0,55,0.00,,,0.00,6,WeatherHawk,2013-01-13 01:05:00,
2013-01-12 17:10:00,48.0,32.6,30.15,West,267,4.0,-999.0,55,0.00,,,0.00,7,WeatherHawk,2013-01-13 01:10:00,
2013-01-12 17:15:00,47.8,32.5,30.15,West,275,4.0,-999.0,55,0.00,,,0.00,5,WeatherHawk,2013-01-13 01:15:00,
2013-01-12 17:20:00,47.7,32.7,30.15,West,275,3.0,-999.0,56,0.00,,,0.00,2,WeatherHawk,2013-01-13 01:20:00,
2013-01-12 17:25:00,47.5,32.6,30.15,West,270,4.0,-999.0,56,0.00,,,0.00,3,WeatherHawk,2013-01-13 01:25:00,
2013-01-12 17:30:00,47.5,33.0,30.15,WNW,282,4.0,-999.0,57,0.00,,,0.00,0,WeatherHawk,2013-01-13 01:30:00,
2013-01-12 17:35:00,47.3,32.4,30.15,West,267,3.0,-999.0,56,0.00,,,0.00,0,WeatherHawk,2013-01-13 01:35:00,
2013-01-12 17:40:00,47.1,31.8,30.15,West,277,5.0,-999.0,55,0.00,,,0.00,0,WeatherHawk,2013-01-13 01:40:00,
2013-01-12 17:45:00,47.1,31.8,30.15,WNW,285,5.0,-999.0,55,0.00,,,0.00,0,WeatherHawk,2013-01-13 01:45:00,
2013-01-12 17:50:00,46.9,32.1,30.15,West,267,4.0,-999.0,56,0.00,,,0.00,1,WeatherHawk,2013-01-13 01:50:00,
2013-01-12 17:55:00,46.9,32.1,30.15,West,273,6.0,-999.0,56,0.00,,,0.00,2,WeatherHawk,2013-01-13 01:55:00,
2013-01-12 18:00:00,46.6,31.7,30.15,WNW,292,4.0,-999.0,56,0.00,,,0.00,0,WeatherHawk,2013-01-13 02:00:00,
2013-01-12 18:05:00,46.4,32.0,30.16,NNW,327,4.0,-999.0,57,0.00,,,0.00,2,WeatherHawk,2013-01-13 02:05:00,
2013-01-12 18:10:00,46.0,33.4,30.16,NNW,338,3.0,-999.0,61,0.00,,,0.00,0,WeatherHawk,2013-01-13 02:10:00,
2013-01-12 18:15:00,45.7,33.4,30.16,NNW,333,4.0,-999.0,62,0.00,,,0.00,0,WeatherHawk,2013-01-13 02:15:00,
2013-01-12 18:20:00,45.1,33.7,30.16,NW,320,5.0,-999.0,64,0.00,,,0.00,0,WeatherHawk,2013-01-13 02:20:00,
2013-01-12 18:25:00,45.0,34.3,30.16,NNW,338,3.0,-999.0,66,0.00,,,0.00,0,WeatherHawk,2013-01-13 02:25:00,
2013-01-12 18:34:00,44.4,34.2,30.16,North,353,7.0,-999.0,67,0.00,,,0.00,0,WeatherHawk,2013-01-13 02:34:00,
2013-01-12 18:39:00,43.9,34.0,30.16,NNW,344,5.0,-999.0,68,0.00,,,0.00,2,WeatherHawk,2013-01-13 02:39:00,
2013-01-12 18:44:00,43.7,34.2,30.16,NNW,346,6.0,-999.0,69,0.00,,,0.00,2,WeatherHawk,2013-01-13 02:44:00,
2013-01-12 18:49:00,43.7,34.2,30.16,North,351,6.0,-999.0,69,0.00,,,0.00,0,WeatherHawk,2013-01-13 02:49:00,
2013-01-12 18:54:00,43.7,34.2,30.16,NNW,339,5.0,-999.0,69,0.00,,,0.00,0,WeatherHawk,2013-01-13 02:54:00,
2013-01-12 18:59:00,43.3,33.9,30.16,North,350,4.0,-999.0,69,0.00,,,0.00,1,WeatherHawk,2013-01-13 02:59:00,
2013-01-12 19:04:00,43.7,33.8,30.15,North,351,10.0,-999.0,68,0.00,,,0.00,0,WeatherHawk,2013-01-13 03:04:00,
2013-01-12 19:09:00,43.9,33.6,30.15,North,349,12.0,-999.0,67,0.00,,,0.00,1,WeatherHawk,2013-01-13 03:09:00,
2013-01-12 19:14:00,44.1,34.2,30.16,NNW,342,9.0,-999.0,68,0.00,,,0.00,0,WeatherHawk,2013-01-13 03:14:00,
2013-01-12 19:19:00,44.2,34.0,30.16,NNW,347,7.0,-999.0,67,0.00,,,0.00,0,WeatherHawk,2013-01-13 03:19:00,
2013-01-12 19:24:00,44.2,33.6,30.16,North,354,13.0,-999.0,66,0.00,,,0.00,0,WeatherHawk,2013-01-13 03:24:00,
2013-01-12 19:29:00,44.2,33.6,30.16,North,349,9.0,-999.0,66,0.00,,,0.00,0,WeatherHawk,2013-01-13 03:29:00,
2013-01-12 19:34:00,44.1,33.8,30.16,North,351,11.0,-999.0,67,0.00,,,0.00,0,WeatherHawk,2013-01-13 03:34:00,
2013-01-12 19:39:00,43.9,33.6,30.16,NNW,342,10.0,-999.0,67,0.00,,,0.00,0,WeatherHawk,2013-01-13 03:39:00,
2013-01-12 19:44:00,44.1,33.8,30.16,NNW,330,9.0,-999.0,67,0.00,,,0.00,0,WeatherHawk,2013-01-13 03:44:00,
2013-01-12 19:49:00,44.1,33.4,30.15,NNW,345,8.0,-999.0,66,0.00,,,0.00,0,WeatherHawk,2013-01-13 03:49:00,
2013-01-12 19:54:00,44.1,33.4,30.15,North,355,8.0,-999.0,66,0.00,,,0.00,2,WeatherHawk,2013-01-13 03:54:00,
2013-01-12 19:59:00,43.9,33.3,30.15,North,349,9.0,-999.0,66,0.00,,,0.00,1,WeatherHawk,2013-01-13 03:59:00,
2013-01-12 20:04:00,44.1,33.4,30.15,North,355,7.0,-999.0,66,0.00,,,0.00,2,WeatherHawk,2013-01-13 04:04:00,
2013-01-12 20:09:00,44.4,33.4,30.15,North,354,5.0,-999.0,65,0.00,,,0.00,0,WeatherHawk,2013-01-13 04:09:00,
2013-01-12 20:14:00,44.4,33.0,30.15,North,1,5.0,-999.0,64,0.00,,,0.00,0,WeatherHawk,2013-01-13 04:14:00,
2013-01-12 20:19:00,44.4,33.0,30.16,North,7,9.0,-999.0,64,0.00,,,0.00,0,WeatherHawk,2013-01-13 04:19:00,
2013-01-12 20:24:00,44.2,32.8,30.16,North,353,7.0,-999.0,64,0.00,,,0.00,0,WeatherHawk,2013-01-13 04:24:00,
2013-01-12 20:29:00,44.2,32.8,30.16,NNW,345,5.0,-999.0,64,0.00,,,0.00,1,WeatherHawk,2013-01-13 04:29:00,
2013-01-12 20:34:00,44.1,33.1,30.16,North,350,5.0,-999.0,65,0.00,,,0.00,0,WeatherHawk,2013-01-13 04:34:00,
2013-01-12 20:39:00,43.9,32.9,30.16,North,354,9.0,-999.0,65,0.00,,,0.00,0,WeatherHawk,2013-01-13 04:39:00,
2013-01-12 20:45:00,43.9,33.3,30.16,NNW,336,7.0,-999.0,66,0.00,,,0.00,0,WeatherHawk,2013-01-13 04:45:00,
2013-01-12 20:50:00,43.5,33.3,30.16,NNW,344,7.0,-999.0,67,0.00,,,0.00,0,WeatherHawk,2013-01-13 04:50:00,
2013-01-12 20:55:00,43.5,32.9,30.16,NNW,344,8.0,-999.0,66,0.00,,,0.00,1,WeatherHawk,2013-01-13 04:55:00,
2013-01-12 21:04:00,43.5,32.5,30.16,North,356,8.0,-999.0,65,0.00,,,0.00,0,WeatherHawk,2013-01-13 05:04:00,
2013-01-12 21:09:00,43.7,32.3,30.16,North,355,6.0,-999.0,64,0.00,,,0.00,0,WeatherHawk,2013-01-13 05:09:00,
2013-01-12 21:14:00,43.5,32.5,30.16,North,4,8.0,-999.0,65,0.00,,,0.00,0,WeatherHawk,2013-01-13 05:14:00,
2013-01-12 21:19:00,43.2,32.6,30.15,North,352,6.0,-999.0,66,0.00,,,0.00,0,WeatherHawk,2013-01-13 05:19:00,
2013-01-12 21:24:00,43.0,32.0,30.15,North,352,9.0,-999.0,65,0.00,,,0.00,0,WeatherHawk,2013-01-13 05:24:00,
2013-01-12 21:29:00,43.0,31.6,30.15,North,8,9.0,-999.0,64,0.00,,,0.00,2,WeatherHawk,2013-01-13 05:29:00,
2013-01-12 21:34:00,43.0,32.0,30.15,NNW,345,7.0,-999.0,65,0.00,,,0.00,0,WeatherHawk,2013-01-13 05:34:00,
2013-01-12 21:39:00,42.8,32.2,30.15,NNW,341,5.0,-999.0,66,0.00,,,0.00,0,WeatherHawk,2013-01-13 05:39:00,
2013-01-12 21:44:00,42.4,31.9,30.15,North,2,9.0,-999.0,66,0.00,,,0.00,0,WeatherHawk,2013-01-13 05:44:00,
2013-01-12 21:49:00,42.3,32.1,30.15,North,2,9.0,-999.0,67,0.00,,,0.00,0,WeatherHawk,2013-01-13 05:49:00,
2013-01-12 21:54:00,42.1,31.9,30.15,North,4,9.0,-999.0,67,0.00,,,0.00,1,WeatherHawk,2013-01-13 05:54:00,
2013-01-12 21:59:00,41.9,31.4,30.15,North,357,9.0,-999.0,66,0.00,,,0.00,0,WeatherHawk,2013-01-13 05:59:00,
2013-01-12 22:04:00,41.9,30.6,30.16,North,5,10.0,-999.0,64,0.00,,,0.00,1,WeatherHawk,2013-01-13 06:04:00,
2013-01-12 22:09:00,42.1,30.8,30.16,North,7,10.0,-999.0,64,0.00,,,0.00,3,WeatherHawk,2013-01-13 06:09:00,
2013-01-12 22:14:00,42.1,31.2,30.16,North,1,11.0,-999.0,65,0.00,,,0.00,2,WeatherHawk,2013-01-13 06:14:00,
2013-01-12 22:19:00,41.9,31.0,30.16,North,349,9.0,-999.0,65,0.00,,,0.00,0,WeatherHawk,2013-01-13 06:19:00,
2013-01-12 22:24:00,41.7,30.8,30.16,North,3,8.0,-999.0,65,0.00,,,0.00,0,WeatherHawk,2013-01-13 06:24:00,
2013-01-12 22:29:00,41.4,31.2,30.16,North,1,7.0,-999.0,67,0.00,,,0.00,2,WeatherHawk,2013-01-13 06:29:00,
2013-01-12 22:34:00,41.2,31.4,30.16,NNW,346,5.0,-999.0,68,0.00,,,0.00,0,WeatherHawk,2013-01-13 06:34:00,
2013-01-12 22:39:00,41.0,31.6,30.16,North,4,6.0,-999.0,69,0.00,,,0.00,0,WeatherHawk,2013-01-13 06:39:00,
2013-01-12 22:44:00,41.0,31.6,30.17,North,1,7.0,-999.0,69,0.00,,,0.00,0,WeatherHawk,2013-01-13 06:44:00,
2013-01-12 22:49:00,40.8,31.8,30.17,NNE,17,8.0,-999.0,70,0.00,,,0.00,2,WeatherHawk,2013-01-13 06:49:00,
2013-01-12 22:54:00,40.5,31.5,30.17,NNE,22,9.0,-999.0,70,0.00,,,0.00,2,WeatherHawk,2013-01-13 06:54:00,
2013-01-12 22:59:00,40.3,30.9,30.17,NNE,13,9.0,-999.0,69,0.00,,,0.00,1,WeatherHawk,2013-01-13 06:59:00,
2013-01-12 23:04:00,40.1,30.4,30.18,NNE,13,13.0,-999.0,68,0.00,,,0.00,0,WeatherHawk,2013-01-13 07:04:00,
2013-01-12 23:09:00,40.1,30.0,30.18,NNE,16,8.0,-999.0,67,0.00,,,0.00,0,WeatherHawk,2013-01-13 07:09:00,
2013-01-12 23:14:00,40.1,28.5,30.18,NNE,20,7.0,-999.0,63,0.00,,,0.00,2,WeatherHawk,2013-01-13 07:14:00,
2013-01-12 23:19:00,40.3,29.1,30.18,North,358,9.0,-999.0,64,0.00,,,0.00,0,WeatherHawk,2013-01-13 07:19:00,
2013-01-12 23:24:00,40.3,29.8,30.18,NNW,344,10.0,-999.0,66,0.00,,,0.00,2,WeatherHawk,2013-01-13 07:24:00,
2013-01-12 23:29:00,40.1,30.4,30.18,North,349,7.0,-999.0,68,0.00,,,0.00,0,WeatherHawk,2013-01-13 07:29:00,
2013-01-12 23:34:00,39.7,30.4,30.18,North,355,8.0,-999.0,69,0.00,,,0.00,0,WeatherHawk,2013-01-13 07:34:00,
2013-01-12 23:39:00,39.6,30.2,30.19,NNW,347,8.0,-999.0,69,0.00,,,0.00,2,WeatherHawk,2013-01-13 07:39:00,
2013-01-12 23:44:00,39.4,30.4,30.19,NNW,344,9.0,-999.0,70,0.00,,,0.00,2,WeatherHawk,2013-01-13 07:44:00,
2013-01-12 23:49:00,39.2,30.3,30.19,NNW,344,7.0,-999.0,70,0.00,,,0.00,1,WeatherHawk,2013-01-13 07:49:00,
2013-01-12 23:54:00,39.2,30.6,30.19,NNW,342,7.0,-999.0,71,0.00,,,0.00,0,WeatherHawk,2013-01-13 07:54:00,
2013-01-12 23:59:00,39.0,30.4,30.19,NNW,342,10.0,-999.0,71,0.00,,,0.00,0,WeatherHawk,2013-01-13 07:59:00,